Location: Anuling
(14.1239°N, 120.8922°E)
Time: 06:07:55
(UTC+00:00)

Cosmos 1707 Rocket - Pass Details

Date: 14 January 2026
Orbit: 598 x 624 km, 82.5° (Epoch: 7 February)

Event Time Altitude Azimuth Distance (km) Brightness Sun altitude
Rises 11:12:05 0° 189° (S) 2,868 7.3 -20.3°
Reaches altitude 10° 11:14:19 10° 191° (SSW) 1,960 6.5 -20.8°
Maximum altitude 11:18:38 68° 274° (W) 653 3.8 -21.8°
Enters shadow 11:21:21 22° 354° (N) 1,338 5.1 -22.5°
